CW3071 Weather Reports


time (UTC)temp
F
wind
direction
speed
knots
gust
knots
rain 1hr
in
rain 24hr
in
rain mn
in
humidity
%
barometer
mb
20260904031559 70 302 0.0 3.5 0.00 0.00 0.00 22 1013.6
20260904030059 72 0 0.0 1.7 0.00 0.00 0.00 21 1013.5
20260904024600 73 0 0.9 3.5 0.00 0.00 0.00 20 1013.3
20260904023102 74 174 0.0 0.9 0.00 0.00 0.00 19 1013.3
20260904021601 76 0 0.0 2.6 0.00 0.00 0.00 18 1013.1
20260904020123 77 0 0.0 1.7 0.00 0.00 0.00 16 1012.9
20260904014649 79 182 1.7 7.0 0.00 0.00 0.00 15 1012.8
20260904013111 81 175 4.3 7.8 0.00 0.00 0.00 14 1012.7
20260904011606 82 172 5.2 11.3 0.00 0.00 0.00 14 1012.6
20260904010104 83 185 4.3 10.4 0.00 0.00 0.00 14 1012.7
20260904004603 84 186 3.5 9.6 0.00 0.00 0.00 13 1012.6
20260904003112 84 216 5.2 12.2 0.00 0.00 0.00 12 1012.6
20260904001556 85 143 2.6 10.4 0.00 0.00 0.00 12 1012.6
20260903234612 85 215 3.5 12.2 0.00 0.00 0.00 12 1012.7
20260903233059 85 188 7.0 15.6 0.00 0.00 0.00 12 1012.7
20260903231556 85 254 7.0 15.6 0.00 0.00 0.00 12 1012.6
20260903230108 85 188 7.0 15.6 0.00 0.00 0.00 13 1012.6
20260903224559 85 186 9.6 20.9 0.00 0.00 0.00 13 1012.7
20260903223058 85 227 6.1 18.2 0.00 0.00 0.00 13 1012.6
20260903221600 85 232 4.3 14.8 0.00 0.00 0.00 14 1012.7
20260903220107 85 197 6.1 15.6 0.00 0.00 0.00 13 1012.6
20260903214555 85 165 7.0 16.5 0.00 0.00 0.00 13 1012.6
20260903213058 85 174 6.1 18.2 0.00 0.00 0.00 13 1012.7
20260903211556 85 216 7.0 18.2 0.00 0.00 0.00 13 1012.8
20260903204608 84 162 5.2 17.4 0.00 0.00 0.00 14 1013.0
20260903203111 84 181 9.6 17.4 0.00 0.00 0.00 14 1013.1
20260903201559 83 219 5.2 16.5 0.00 0.00 0.00 15 1013.1
20260903200108 83 224 7.0 17.4 0.00 0.00 0.00 14 1013.2
20260903194607 83 251 6.1 13.0 0.00 0.00 0.00 15 1013.2
20260903193108 82 254 7.0 15.6 0.00 0.00 0.00 15 1013.3
20260903191605 82 222 8.7 16.5 0.00 0.00 0.00 15 1013.3
20260903190104 82 188 5.2 17.4 0.00 0.00 0.00 15 1013.4
20260903184600 82 214 5.2 20.0 0.00 0.00 0.00 16 1013.6
20260903183106 81 271 5.2 13.0 0.00 0.00 0.00 16 1013.7
20260903181607 81 170 7.8 16.5 0.00 0.00 0.00 16 1013.8
20260903180109 81 176 5.2 17.4 0.00 0.00 0.00 17 1013.7
20260903174558 81 217 7.0 12.2 0.00 0.00 0.00 16 1013.8
20260903173107 80 259 6.1 13.9 0.00 0.00 0.00 16 1013.8
20260903171603 80 244 5.2 15.6 0.00 0.00 0.00 18 1013.8
20260903170216 79 178 7.0 17.4 0.00 0.00 0.00 21 1013.6
20260903164603 78 228 7.0 14.8 0.00 0.00 0.00 22 1013.5
20260903163103 77 244 7.8 16.5 0.00 0.00 0.00 24 1013.6
20260903161614 75 183 5.2 12.2 0.00 0.00 0.00 31 1013.6
20260903160104 74 209 5.2 14.8 0.00 0.00 0.00 35 1013.8
20260903154603 73 214 6.1 13.9 0.00 0.00 0.00 37 1013.8
20260903153100 71 244 7.0 15.6 0.00 0.00 0.00 40 1013.7
20260903151605 69 192 7.8 18.2 0.00 0.00 0.00 46 1013.6
20260903144559 67 182 4.3 14.8 0.00 0.00 0.00 51 1013.8
20260903143103 66 187 6.1 12.2 0.00 0.00 0.00 51 1013.8
20260903141602 65 170 4.3 12.2 0.00 0.00 0.00 52 1013.8
20260903134607 64 0 0.0 1.7 0.00 0.00 0.00 53 1013.9
20260903133107 62 0 0.0 2.6 0.00 0.00 0.00 56 1013.8
20260903131608 60 88 0.9 3.5 0.00 0.00 0.00 59 1013.6
20260903130107 61 149 0.0 0.9 0.00 0.00 0.00 58 1013.6
20260903124626 61 350 0.0 1.7 0.00 0.00 0.00 55 1013.5
20260903123106 61 0 0.0 3.5 0.00 0.00 0.00 54 1013.3
20260903121601 62 0 0.0 2.6 0.00 0.00 0.00 53 1013.1
20260903120109 62 0 0.0 3.5 0.00 0.00 0.00 50 1013.1
20260903114615 63 0 0.9 5.2 0.00 0.00 0.00 49 1012.9
20260903113106 64 0 0.9 3.5 0.00 0.00 0.00 48 1012.8
20260903111559 65 0 0.0 7.8 0.00 0.00 0.00 46 1012.8
20260903110107 66 158 4.3 11.3 0.00 0.00 0.00 43 1012.5
20260903104604 67 189 4.3 13.0 0.00 0.00 0.00 42 1012.7
20260903103104 66 189 6.1 12.2 0.00 0.00 0.00 42 1012.6
20260903101601 65 202 2.6 8.7 0.00 0.00 0.00 42 1013.1
20260903100105 65 218 2.6 7.0 0.00 0.00 0.00 43 1013.0
20260903094557 65 180 3.5 8.7 0.00 0.00 0.00 43 1012.8
20260903093105 66 160 0.9 5.2 0.00 0.00 0.00 42 1012.7
20260903091610 66 138 2.6 6.1 0.00 0.00 0.00 42 1012.5
20260903090111 66 201 2.6 8.7 0.00 0.00 0.00 42 1012.7
20260903084609 67 182 5.2 12.2 0.00 0.00 0.00 40 1012.6
20260903083103 67 199 5.2 11.3 0.00 0.00 0.00 40 1012.7
20260903081602 67 184 3.5 8.7 0.00 0.00 0.00 40 1013.0
20260903080105 67 185 3.5 7.8 0.00 0.00 0.00 39 1012.8
20260903074607 68 217 2.6 9.6 0.00 0.00 0.00 39 1012.9
20260903073107 68 184 6.1 11.3 0.00 0.00 0.00 38 1012.7
20260903071559 68 180 5.2 12.2 0.00 0.00 0.00 38 1012.9
20260903064557 69 184 7.0 14.8 0.00 0.00 0.00 37 1012.8
20260903063103 67 166 2.6 9.6 0.00 0.00 0.00 38 1012.9
20260903061601 68 134 2.6 5.2 0.00 0.00 0.00 37 1012.7
20260903060106 69 0 0.9 7.0 0.00 0.00 0.00 34 1012.6
20260903054554 70 132 4.3 10.4 0.00 0.00 0.00 33 1012.5
20260903053108 71 186 4.3 10.4 0.00 0.00 0.00 32 1012.3
20260903051606 71 179 4.3 9.6 0.00 0.00 0.00 33 1012.4
20260903050105 72 184 5.2 9.6 0.00 0.00 0.00 34 1012.5
20260903044604 71 153 3.5 10.4 0.00 0.00 0.00 37 1012.6
20260903043059 72 154 3.5 9.6 0.00 0.00 0.00 40 1012.6
20260903041605 73 178 4.3 10.4 0.00 0.00 0.00 38 1012.8
20260903040101 74 190 5.2 13.0 0.00 0.00 0.00 38 1012.9
20260903034559 74 213 4.3 12.2 0.00 0.00 0.00 37 1012.6
20260903033058 75 197 5.2 12.2 0.00 0.00 0.00 37 1012.7